Regional Weather Roundup
Issued by NWS

Home | Current Version | Previous Version | Graphics & Text | Print | Product List | Glossary Off
Versions: 1 2 3 4 5 6 7 8 9 10 11 12 13 14 15 16 17 18 19 20 21 22 23 24 25 26 27 28 29 30 31 32 33 34 35 36 37 38 39 40 41 42 43 44 45 46 47 48 49 50

000
ASUS43 KMKX 031800
RWRWI

WISCONSIN REGIONAL WEATHER ROUNDUP
NATIONAL WEATHER SERVICE MILWAUKEE/SULLIVAN WI
100 PM CDT SUN MAY 03 2015

NOTE: "FAIR" INDICATES FEW OR NO CLOUDS BELOW 12,000 FEET WITH NO
SIGNIFICANT WEATHER AND/OR OBSTRUCTIONS TO VISIBILITY.

WIZ001-002-006>008-014>016-023>028-031900-
NORTHWEST WISCONSIN

CITY           SKY/WX    TMP DP  RH WIND       PRES   REMARKS
SUPERIOR ARPT  PTSUNNY   78  47  34 SW5       29.75R
ASHLAND        MOSUNNY   78  51  38 SW12G21   29.76S
6HR MIN TEMP:  62; 6HR MAX TEMP:  79;

HAYWARD        MOSUNNY   73  50  44 S9        29.80S
6HR MIN TEMP:  58; 6HR MAX TEMP:  74;

SIREN          CLOUDY    73  50  44 W3        29.81R
CUMBERLAND     MOSUNNY   72  50  46 SW5       29.81S
RICE LAKE      MOSUNNY   73  52  47 S6        29.82F
CHETEK         MOSUNNY   73  56  54 SE3       29.80F
LADYSMITH      SUNNY     73  54  50 SW6       29.83S
6HR MIN TEMP:  51; 6HR MAX TEMP:  73;

EAU CLAIRE     MOSUNNY   74  52  46 S7        29.79F
6HR MIN TEMP:  57; 6HR MAX TEMP:  74;

MENOMONIE      MOSUNNY   73  53  48 S6        29.80S
6HR MIN TEMP:  58; 6HR MAX TEMP:  73;

NEW RICHMOND   MOSUNNY   74  53  47 S5        29.80S
OSCEOLA        PTSUNNY   73  54  51 CALM      29.83R
$$

WIZ003>005-009-010-017-018-031900-
NORTH CENTRAL WISCONSIN

CITY           SKY/WX    TMP DP  RH WIND       PRES   REMARKS
MANITOWISH WTR MOSUNNY   74  52  46 SW12      29.80S
ARBOR VITAE    SUNNY     75  53  45 SW14      29.81S
WOODRUFF       SUNNY     75  53  45 SW14      29.81S
RHINELANDER    SUNNY     75  52  44 SW12G23   29.82F
6HR MIN TEMP:  56; 6HR MAX TEMP:  76;

EAGLE RIVER    SUNNY     75  46  36 W15       29.80F
LAND O LAKES   MOSUNNY   76  46  34 SW12      29.81S
PHILLIPS       CLOUDY    73  53  50 SW9G16    29.80S
6HR MIN TEMP:  55; 6HR MAX TEMP:  74;

TOMAHAWK       MOSUNNY   74  53  46 CALM      29.82F
MEDFORD        MOSUNNY   71  52  51 S7        29.83F
MERRILL        MOSUNNY   73  53  49 S7        29.83F
$$

WIZ029-030-035-036-043>047-031900-
CENTRAL WISCONSIN

CITY           SKY/WX    TMP DP  RH WIND       PRES   REMARKS
WAUSAU         MOSUNNY   74  51  44 S9        29.81F
6HR MIN TEMP:  56; 6HR MAX TEMP:  75;

MOSINEE        SUNNY     73  52  46 S14       29.84F
MARSHFIELD     MOSUNNY   77  51  40 S12G21    29.82F
6HR MIN TEMP:  55; 6HR MAX TEMP:  78;

STEVENS POINT  MOSUNNY   74  50  42 SW14      29.83F
WAUPACA        PTSUNNY   78  50  37 S8        29.85F
WAUTOMA        NOT AVBL
WISC RAPIDS    MOSUNNY   77  49  37 S14       29.83F
6HR MIN TEMP:  57; 6HR MAX TEMP:  77;

CAMP DOUGLAS   NOT AVBL
$$

WIZ011>013-019>022-031-037>040-048>050-031900-
NORTHEAST WISCONSIN

CITY           SKY/WX    TMP DP  RH WIND       PRES   REMARKS
ANTIGO         SUNNY     72  52  50 S10G18    29.84F
SHAWANO        SUNNY     78  49  36 SW13      29.85F
OCONTO         MOSUNNY   77  53  42 S8G16     29.83F
STURGEON BAY   PTSUNNY   72  48  43 S16       29.88F
6HR MIN TEMP:  57; 6HR MAX TEMP:  73;

GREEN BAY      MOSUNNY   78  51  38 SW18G25   29.85F
6HR MIN TEMP:  56; 6HR MAX TEMP:  78;

MANITOWOC      NOT AVBL
APPLETON       PTSUNNY   73  48  40 SW21      29.86F
CLINTONVILLE   MOSUNNY   79  48  34 SW17      29.84F
OSHKOSH        PTSUNNY   76  53  44 SW16G26   29.86F
6HR MIN TEMP:  57; 6HR MAX TEMP:  77;

$$

WIZ032>034-041-042-053>061-031900-
SOUTHWEST WISCONSIN

CITY           SKY/WX    TMP DP  RH WIND       PRES   REMARKS
LA CROSSE      MOSUNNY   76  53  44 S7        29.81F
6HR MIN TEMP:  62; 6HR MAX TEMP:  78;

SPARTA         MOSUNNY   74  50  41 SW9G16    29.83F
VIROQUA        MOSUNNY   73  52  47 S15       29.85F
BOSCOBEL       LGT RAIN  76  55  48 S14       29.86S
6HR MIN TEMP:  62; 6HR MAX TEMP:  76; 6HR PCP: TRACE;

PRAIRIE DU CHI PTSUNNY   74  51  44 S12G17    29.85S
PLATTEVILLE    CLOUDY    68  54  60 S15       29.90F
$$

WIZ056-057-062-063-064-067-068-031900-
SOUTH CENTRAL WISCONSIN

CITY           SKY/WX    TMP DP  RH WIND       PRES   REMARKS
REEDSBURG      CLOUDY    74  56  53 S12G17    29.85F
BARABOO/DELLS  NOT AVBL
LONE ROCK      NOT AVBL
MINERAL POINT  PTSUNNY   72  50  46 S20G25    29.89F
MADISON        PTSUNNY   73  53  49 SW14G25   29.88F
6HR MIN TEMP:  61; 6HR MAX TEMP:  76;

MIDDLETON      PTSUNNY   74  51  44 S18G26    29.88F
WATERTOWN      PTSUNNY   74  53  49 S9G20     29.89F
MONROE         CLOUDY    68  55  64 SW24      29.91S THUNDER
JANESVILLE     PTSUNNY   75  52  43 SW20G25   29.90F
$$

WIZ051-052-058>065-066-070>072-031900-
SOUTHEAST WISCONSIN

CITY           SKY/WX    TMP DP  RH WIND       PRES   REMARKS
MILWAUKEE      CLOUDY    76  49  38 SW15G28   29.91F
6HR MIN TEMP:  59; 6HR MAX TEMP:  76; 6HR PCP: TRACE;

WAUKESHA       CLOUDY    73  48  40 S13G20    29.92F
MILWAUKEE/TIMM PTSUNNY   73  46  38 SW13G21   29.91F
RACINE         CLOUDY    79  50  36 S15G24    29.93F
6HR MIN TEMP:  59; 6HR MAX TEMP:  79;

BURLINGTON     PTSUNNY   80  49  34 SW23G29   29.91F
KENOSHA        PTSUNNY   79  51  37 S16G25    29.92F
6HR MIN TEMP:  58; 6HR MAX TEMP:  79;

FOND DU LAC    PTSUNNY   76  51  41 S20G37    29.87F
6HR MIN TEMP:  59; 6HR MAX TEMP:  77;

SHEBOYGAN      PTSUNNY   79  50  36 S22       29.88F
6HR MIN TEMP:  55; 6HR MAX TEMP:  79;

WEST BEND      PTSUNNY   72  46  40 SW18G25   29.90F
JUNEAU         PTSUNNY   72  52  50 S17       29.91F
$$

LSZ147-162-031900-
LAKE SUPERIOR

STATION/POSITION TIME  TEMP    WIND        PRES    WAVE
                       AIR SEA DIR/SP/G            HT/PER
                 (UTC) (F)     (DEG/KT/KT) (MB)    (FT/S)
W MID LAKE BUOY  1650   42 35  180/  8/  8 1007.6R   1
DEVILS ISLAND    1700   65     210/ 12/ 15 1007.0R
PORT WING        1700   69     250/  8/ 13 1007.8R
SAXON HARBOR     1740           20/  3/  5 1007.8R
$$

LMZ867-665-643>646-031900-
LAKE MICHIGAN

STATION/POSITION TIME  TEMP    WIND        PRES    WAVE
                       AIR SEA DIR/SP/G            HT/PER
                 (UTC) (F)     (DEG/KT/KT) (MB)    (FT/S)
CHAMBERS ISLAND  1700   71     190/ 10/ 19 1011.2S
NORTHPORT PIER   1700   56     160/  7/ 13 1011.9R
SISTER BAY       1717   70     180/ 12/ 15   N/A
KEWAUNEE LAKESHO 1700   49     170/ 13/ 15 1011.6S
SHEBOYGAN LAKESH 1700   47     160/ 20/ 20 1013.1S
PORT WASHINGTON  1740   53     170/  7/ 11 1013.9S
ATWATER BUOY     1700   49     160/ 12/ 14 1014.4F
MILWAUKEE LAKESH 1700          140/  5/  8   N/A
KENOSHA   LAKESH 1700   53     170/ 14/ 16 1013.9F
$$

TC  - TEMPERATURE IN CELSIUS
VSB - VISIBILITY IN STATUTE MILES
WCI - WIND CHILL INDEX
HX  - HEAT INDEX




USA.gov is the U.S. government's official web portal to all federal, state and local government web resources and services.